13:17
Airports
History
Links
Donate
Help keep this website running!
PayPal
Bitcoin
This page is community maintained. The information is intended for PC simulator navigation or reference.
Always use approved charts for navigation.
SDRD
Adhemar Ribeiro
Adhemar Ribeiro (SDRD)
Santa Rita do Passa Quatro, São Paulo, Brazil (13670)
4
Lat/Lng:21° 38' 33" S / 47° 28' 16" W
-21.6425 / -47.471111
Elevation:2776'ft / 846mMSL
ID / ICAO:SDRD
Runways:1
Longest:12-30
Dirt 676m / 2,218ft
Nearby Weather12:00 GMT 2017-10-17
Nearby weather at SBYS, CAMPO FONTENELLE located 25.2 nautical miles from SDRD
Altimeter: 30.18
Visibility: 6.2 statute miles
Wind: 10 knots (from 090°)
Temp: 26°c / 79°f
Humidity: 54.1%

METAR: SBYS 171200Z 09010KT 040V120 9999 FEW035 SCT070 26/16 Q1022

(Powered by phpweather)
Runway 12 / 30
Dimensions:675.9 x 29.9m 2218' x 98'ft
Surface:Dirt
Runway 12 [A]Runway 30 [B]
Heading:100°TH 280°TH
Lat:
Lng:
21° 38' 31.03"S
47° 28' 27.67"W
21° 38' 34.97"S
47° 28' 4.33"W
User Notes and Comments
21° 38' 33" S / 47° 28' 16" W
Distance To
Airport ID:
Nearby Airports
4 Tambau 10.7 NM
SSET ESE 110°
4 Usina Santa Rita 13.2 NM
SDSQ WSW 244°
(U) FAZENDA AMALIA 15.2 NM
SDFH NNE 25°
(C) Porto Ferreira 16.0 NM
SDPF S 180°
(C) CAMPO FONTENELLE 25.2 NM
SBYS ( WX ) SSE 159°
4 Fazenda Santa Terezinha da Barra 25.6 NM
SDST SW 229°
4 Fazenda Passaredo 26.7 NM
SSEF NE 35°
VFR Chart
Flight Planning at SkyVector.com